Weather History for Juan Santamaria, Costa Rica

Change the Weather History Date:

Thursday, October 4, 2012

  Actual Average Record
Temperature  
Mean Temperature 78 °F -  
Max Temperature 88 °F 78 °F - ()
Min Temperature 68 °F 64 °F - ()
Cooling Degree Days 13    
Growing Degree Days 28 (Base 50)    
Moisture  
Dew Point 63 °F    
Average Humidity 68    
Maximum Humidity 94    
Minimum Humidity 35    
Precipitation  
Precipitation 0.01 in 0.40 in - ()
Sea Level Pressure  
Sea Level Pressure 29.99 in    
Wind  
Wind Speed 7 mph ()    
Max Wind Speed 14 mph    
Max Gust Speed -    
Visibility 7.6 miles    
Events Fog , Rain    
T = Trace of Precipitation, MM = Missing Value Source: Averaged Metar Reports

Daily Weather History Graph

Daily Weather History Graph

Search for Another Location

Airport:

Trip Planner

Search our weather history database for the weather conditions in past years. The results will help you decide how hot, cold, wet, or windy it might be!

Date:

Astronomy

Oct. 04, 2012 Rise Set
Actual Time 5:25 AM CST 5:25 PM CST
Civil Twilight 5:04 AM CST 5:46 PM CST
Nautical Twilight 4:39 AM CST 6:10 PM CST
Astronomical Twilight 4:15 AM CST 6:35 PM CST
Moon 8:48 PM CST (10/4) 8:54 AM CST (10/4)
Length of Visible Light 12h 42m
Length of Day
12h 00m
Waning Gibbous, 81% of the Moon is Illuminated
Oct 4
Waning Gibbous
Oct 8
Last Quarter
Oct 15
New
Oct 21
First Quarter
Oct 29
Full

Hourly Weather History & Observations

Time (CST) Temp. Heat Index Dew Point Humidity Pressure Visibility Wind Dir Wind Speed Gust Speed Precip Events Conditions
12:00 AM 70 °F - 61 °F 65% 29.85 in 12 mi East 8.1 mph - -  
12:00 AM 69.8 °F - 60.8 °F 73% 30.01 in - East 8.1 mph - N/A   Clear
1:00 AM 69.8 °F - 60.8 °F 73% 29.99 in - East 6.9 mph - N/A   Clear
2:00 AM 69.8 °F - 59.0 °F 68% 29.99 in - ESE 6.9 mph - N/A   Clear
3:00 AM 71 °F - 58 °F 55% 29.84 in 12 mi East 8.1 mph - -   Clear
3:00 AM 71.6 °F - 59.0 °F 64% 29.99 in - East 8.1 mph - N/A   Clear
4:00 AM 69.8 °F - 59.0 °F 68% 30.01 in - ESE 6.9 mph - N/A   Clear
5:00 AM 69.8 °F - 60.8 °F 73% 30.03 in - ESE 8.1 mph - N/A   Clear
6:00 AM 70 °F - 60 °F 61% 29.88 in 12 mi ESE 9.2 mph - -   Clear
6:00 AM 69.8 °F - 59.0 °F 68% 30.04 in - ESE 9.2 mph - N/A   Clear
7:00 AM 73.4 °F - 60.8 °F 65% 30.08 in - East 6.9 mph - N/A   Clear
8:00 AM 77.0 °F - 60.8 °F 57% 30.09 in - East 8.1 mph - N/A   Clear
9:00 AM 80 °F - 60 °F 41% 29.96 in 12 mi East 9.2 mph - -   Scattered Clouds
9:00 AM 78.8 °F - 60.8 °F 54% 30.09 in 6.2 mi East 9.2 mph - N/A   Scattered Clouds
10:00 AM 80.6 °F 81.5 °F 60.8 °F 51% 30.09 in 6.2 mi ENE 11.5 mph - N/A   Scattered Clouds
11:00 AM 80.6 °F 82.3 °F 64.4 °F 58% 30.07 in 6.2 mi ENE 11.5 mph - N/A   Scattered Clouds
12:00 PM 81 °F - 62 °F 42% 29.85 in 12 mi ESE 11.5 mph - -   Partly Cloudy
12:00 PM 82.4 °F 82.5 °F 59.0 °F 45% 29.99 in 6.2 mi ESE 10.4 mph - N/A   Mostly Cloudy
1:00 PM 82.4 °F 82.5 °F 59.0 °F 45% 29.99 in 6.2 mi ESE 10.4 mph - N/A   Mostly Cloudy
2:00 PM 86.0 °F 84.5 °F 55.4 °F 35% 29.95 in 6.2 mi ESE 6.9 mph - N/A   Mostly Cloudy
2:20 PM 80.6 °F 83.2 °F 68.0 °F 65% 29.95 in 6.2 mi SW 12.7 mph - N/A   Mostly Cloudy
3:00 PM 78 °F - 71 °F 74% 29.80 in 9 mi WSW 13.8 mph - -   Mostly Cloudy
3:00 PM 78.8 °F - 71.6 °F 78% 29.95 in 6.2 mi WSW 13.8 mph - N/A   Mostly Cloudy
4:00 PM 73.4 °F - 69.8 °F 88% 29.98 in 5.0 mi WSW 10.4 mph - N/A Fog Fog
5:00 PM 71.6 °F - 68.0 °F 88% 30.01 in 5.0 mi SW 11.5 mph - N/A   Mostly Cloudy
6:00 PM 70 °F - 67 °F 88% 29.89 in 5 mi WSW 5.8 mph - - Rain Light Rain
6:00 PM 69.8 °F - 68.0 °F 94% 30.03 in 5.0 mi WSW 5.8 mph - N/A Fog , Rain Light Rain
7:00 PM 69.8 °F - 66.2 °F 88% 30.05 in 6.2 mi Calm Calm - N/A Fog Mostly Cloudy
8:00 PM 69.8 °F - 66.2 °F 88% 30.06 in 6.2 mi Calm Calm - N/A Rain Light Rain
9:00 PM 69 °F - 65 °F 84% 29.92 in 12 mi ENE 2.3 mph - -   Overcast
9:00 PM 69.8 °F - 64.4 °F 83% 30.08 in 6.2 mi ENE 2.3 mph - N/A   Mostly Cloudy
10:00 PM 68.0 °F - 64.4 °F 88% 30.09 in 6.2 mi ESE 2.3 mph - N/A   Mostly Cloudy
11:00 PM 68.0 °F - 64.4 °F 88% 30.06 in - ENE 4.6 mph - N/A   Clear